Zurück zum Katalog

STARLINK-34765

AktivKommunikationVLEO
NORAD 66506·PAYLOAD·🇺🇸 United States

Gestartet Nov 15, 2025 von Cape Canaveral Space Force Station

Loading…

Nächste Überflüge (nächste 24 Stunden)

TLE

AktuellSource: CelesTrak SupGP

Epoche: Sep 14, 2026, 15:20 UTC

1 66506C 25263X   26257.63937500 -.00030797  00000+0 -11157-2 0  2577
2 66506  43.0042   3.6154 0001597 278.1138 175.2341 15.27585739    15

Verfolge STARLINK-34765 in Echtzeit mit AllMySat

Download on the App Store